Home > Weather > Loma Linda > Past weeks

Flag for USA Past Weather in Loma Linda, California, USA — Yesterday and Last 2 Weeks

Now
64 °F

Clear.


Feels Like: 64 °F
Forecast: 59 / 87 °F
Wind: 5 mph from West

Location: Norton Air Force Base / San Bern

Current Time: Aug 27, 2016 at 1:22:14 AM

Latest Report: Aug 27, 2016 at 12:53 AM


Visibility: 10 mi

Pressure: 29.98 "Hg

Humidity: 77%

Dew Point: 56 °F

Location of Loma LindaLocation

Past Weather in Loma Linda — Graph

°F

Loma Linda Temperature Yesterday

Maximum temperature yesterday: 90 °F (at 3:50 PM)
Minimum temperature yesterday: 55 °F (at 7:00 AM)
Average temperature yesterday: 68 °F

High & Low Weather Summary for the Past Weeks

 TemperatureHumidityPressure
High108 °F (Aug 15, 2:50 PM)88% (Aug 14, 7:47 AM)30.06 "Hg (Aug 14, 7:47 AM)
Low55 °F (Aug 26, 7:00 AM)4% (Aug 16, 1:50 PM)29.81 "Hg (Aug 17, 6:50 PM)
Average78 °F42%29.93 "Hg
* Reported Aug 12 12:14 AM — Aug 27 12:14 AM, Loma Linda, Weather by CustomWeather, © 2016

Note: Actual official high and low records may vary slightly from our data, if they occured in-between our weather recording intervals... More about our weather records

Advertising

Loma Linda Weather History for the Previous 24 Hours

Scroll right to see more
 ConditionsComfort  
Time TempWeatherWind HumidityBarometerVisibility
12:14 AM
Sat, Aug 27
65 °FClear.6 mph75%29.97 "Hg10 mi
11:53 PM
Fri, Aug 26
65 °FClear.6 mph74%29.98 "Hg10 mi
11:34 PM65 °FClear.5 mph73%29.98 "Hg10 mi
11:14 PM66 °FClear.7 mph70%29.98 "Hg10 mi
10:53 PM67 °FClear.6 mph68%29.98 "Hg10 mi
10:34 PM67 °FClear.6 mph68%29.97 "Hg10 mi
10:14 PM68 °FClear.6 mph66%29.98 "Hg10 mi
9:53 PM68 °FClear.9 mph64%29.97 "Hg10 mi
9:34 PM69 °FClear.8 mph62%29.97 "Hg10 mi
9:14 PM70 °FClear.9 mph60%29.96 "Hg10 mi
8:46 PM72 °FClear.9 mph57%29.95 "Hg7 mi
7:55 PM73 °FSunny.13 mph50%29.93 "Hg7 mi
6:50 PM79 °FSunny.14 mph39%29.91 "Hg7 mi
5:50 PM84 °FSunny.13 mph31%29.90 "Hg7 mi
4:50 PM88 °FSunny.12 mph25%29.90 "Hg7 mi
3:50 PM90 °FHaze.8 mph24%29.90 "Hg5 mi
2:46 PM86 °FHaze.8 mph27%29.92 "Hg3 mi
1:46 PM82 °FHaze.9 mph37%29.95 "Hg3 mi
11:50 AM77 °FSunny.6 mph51%29.98 "Hg3 mi
10:50 AM73 °FHaze.No wind57%30.00 "Hg3 mi
9:46 AM68 °FOvercast.No wind73%30.00 "Hg3 mi
8:45 AM66 °FOvercast.No wind78%29.98 "Hg3 mi
7:45 AM64 °FFog.No wind73%29.98 "Hg2 mi
7:00 AM55 °FFog.No wind82%29.96 "Hg2 mi
6:54 AM64 °FLow clouds.No wind84%29.96 "Hg5 mi
6:33 AM64 °FLow clouds.No wind84%29.96 "Hg5 mi
6:14 AM64 °FLow clouds.No wind85%29.95 "Hg5 mi
5:53 AM64 °FLow clouds.3 mph85%29.95 "Hg5 mi
5:34 AM64 °FFog.3 mph85%29.94 "Hg5 mi
5:14 AM63 °FFog.5 mph86%29.94 "Hg5 mi
4:54 AM62 °FPassing clouds.3 mph87%29.94 "Hg7 mi
4:34 AM62 °FClear.5 mph86%29.94 "Hg7 mi
4:14 AM62 °FClear.5 mph85%29.94 "Hg7 mi
3:53 AM63 °FClear.6 mph85%29.94 "Hg7 mi
3:34 AM63 °FClear.6 mph83%29.94 "Hg10 mi
3:14 AM64 °FClear.5 mph83%29.93 "Hg10 mi
2:53 AM64 °FClear.5 mph82%29.93 "Hg10 mi
2:34 AM64 °FClear.6 mph82%29.93 "Hg10 mi
2:14 AM64 °FClear.5 mph80%29.93 "Hg10 mi
1:53 AM65 °FClear.5 mph78%29.93 "Hg10 mi
1:34 AM66 °FClear.6 mph76%29.94 "Hg10 mi
1:14 AM66 °FClear.7 mph74%29.94 "Hg10 mi
Weather by CustomWeather, © 2016

See weather overviewHow to use our weather pages